Regional Weather Roundup
Issued by NWS

Home | Current Version | Previous Version | Graphics & Text | Print | Product List | Glossary On
Versions: 1 2 3 4 5 6 7 8 9 10 11 12 13 14 15 16 17 18 19 20 21 22 23 24 25 26 27 28 29 30 31 32 33 34 35 36 37 38 39 40 41 42 43 44 45 46 47 48 49 50
000
ASUS43 KLMK 291810
RWRKY
KENTUCKY REGIONAL WEATHER ROUNDUP
NATIONAL WEATHER SERVICE LOUISVILLE KY
200 PM EDT WED JUL 29 2015

NOTE "FAIR" INDICATES FEW OR NO CLOUDS BELOW 12,000 FEET
WITH NO SIGNIFICANT WEATHER AND/OR OBSTRUCTIONS TO VISIBILITY.

KYZ001>023-026-027-061>063-070>075-291900-
WESTERN AND SOUTH CENTRAL KENTUCKY

CITY           SKY/WX    TMP DP  RH WIND       PRES   REMARKS
PADUCAH        FAIR      95  78  58 SW7       29.98F HX 111
HENDERSON      SUNNY     93  79  62 W3        29.97S HX 110
OWENSBORO      MOSUNNY   93  78  61 CALM      29.99F HX 108
HOPKINSVILLE   MOSUNNY   82  77  84 SW7       30.01F HX  90
BOWLING GREEN  MOSUNNY   89  76  65 SW7       30.01F HX 100
GLASGOW        MOSUNNY  N/A N/A N/A CALM      30.02F
$$

KYZ024-025-028>034-038-045-046-053-291900-
NORTH CENTRAL KENTUCKY

CITY           SKY/WX    TMP DP  RH WIND       PRES   REMARKS
LOUISVILLE/SDF PTSUNNY   91  75  59 W8        29.98S HX 101
LOUISVILLE/LOU PTSUNNY   90  76  63 VRB3      29.99S HX 101
FORT KNOX      MOSUNNY   90  77  66 S6        29.99S HAZE    HX 102
$$

KYZ035>037-039>044-047>052-055>060-089>105-291900-
NORTHEAST KENTUCKY

CITY           SKY/WX    TMP DP  RH WIND       PRES   REMARKS
LEXINGTON      MOSUNNY   90  75  61 VRB3      30.01F HX 100
COVINGTON      PTSUNNY   89  74  60 VRB3      29.98F HX  98
FRANKFORT      MOSUNNY   88  75  65 SW7       29.99F HX  97
$$

KYZ054-064>069-076>088-106>120-291900-
SOUTHEAST KENTUCKY

CITY           SKY/WX    TMP DP  RH WIND       PRES   REMARKS
JACKSON        MOSUNNY   87  72  60 VRB3      30.05S HX  93
LONDON         MOSUNNY   84  71  65 VRB5      30.06F
SOMERSET       PTSUNNY   82  73  74 S3        30.06S HAZE
MIDDLESBORO    MOSUNNY   87  72  62 W3        30.05S HX  93
MONTICELLO     CLEAR     90  77  65 CALM      30.07S HX 103
$$



USA.gov is the U.S. government's official web portal to all federal, state and local government web resources and services.